Madison, SD

4:53 PM CST on February 13, 2016 (GMT -0600)
Madison Municipal

Weather History for KMDS - January, 2014

Change the Weather History Date:

Monday, January 6, 2014

  Actual Average Record
Temperature  
Mean Temperature -12 °F -  
Max Temperature -7 °F 20 °F 44 °F (2012)
Min Temperature -18 °F 2 °F -18 °F (2014)
Degree Days  
Heating Degree Days 78    
Moisture  
Dew Point -21 °F    
Average Humidity 71    
Maximum Humidity 77    
Minimum Humidity 64    
Precipitation  
Precipitation 0.00 in - - ()
Sea Level Pressure  
Sea Level Pressure 30.27 in    
Wind  
Wind Speed 20 mph (WNW)    
Max Wind Speed 25 mph    
Max Gust Speed 34 mph    
Visibility 10 miles    
Events      
Averages and records for this station are not official NWS values.
T = Trace of Precipitation, MM = Missing Value Source: NWS Daily Summary

Daily Weather History Graph

Daily Weather History Graph

Search for Another Location

Airport or City:

Trip Planner

Search our weather history database for the weather conditions in past years. The results will help you decide how hot, cold, wet, or windy it might be!

Date:

Astronomy

Jan. 06, 2014 Rise Set
Actual Time 8:02 AM CST 5:05 PM CST
Civil Twilight 7:30 AM CST 5:38 PM CST
Nautical Twilight 6:54 AM CST 6:14 PM CST
Astronomical Twilight 6:19 AM CST 6:49 PM CST
Moon 11:05 AM CST (1/6) 11:55 PM CST (1/6)
Length of Visible Light 10h 08m
Length of Day
9h 02m
Waxing Crescent, 35% of the Moon is Illuminated
Jan 6
Waxing Crescent
Jan 7
First Quarter
Jan 15
Full
Jan 23
Last Quarter
Jan 30
New

Hourly Weather History & Observations

Time (CST) Temp. Windchill Dew Point Humidity Pressure Visibility Wind Dir Wind Speed Gust Speed Precip Events Conditions
12:10 AM -16.6 °F -45.9 °F -23.8 °F 70% 30.34 in 10.0 mi NW 24.2 mph 28.8 mph N/A   Mostly Cloudy
12:30 AM -16.6 °F -46.4 °F -23.8 °F 70% 30.33 in 10.0 mi NW 25.3 mph 32.2 mph N/A   Mostly Cloudy
12:50 AM -16.6 °F -44.8 °F -25.6 °F 64% 30.33 in 10.0 mi NW 21.9 mph 29.9 mph N/A   Partly Cloudy
1:05 AM -18.4 °F -48.8 °F -25.6 °F 70% 30.33 in 10.0 mi NW 25.3 mph 33.4 mph N/A   Partly Cloudy
1:30 AM -18.4 °F -47.7 °F -25.6 °F 70% 30.33 in 10.0 mi NW 23.0 mph 29.9 mph N/A   Clear
1:50 AM -18.4 °F -48.3 °F -25.6 °F 70% 30.33 in 10.0 mi NW 24.2 mph 32.2 mph N/A   Clear
2:05 AM -18.4 °F -47.7 °F -25.6 °F 70% 30.33 in 10.0 mi NW 23.0 mph 28.8 mph N/A   Partly Cloudy
2:30 AM -18.4 °F -47.7 °F -25.6 °F 70% 30.33 in 10.0 mi NW 23.0 mph 27.6 mph N/A   Scattered Clouds
2:45 AM -18.4 °F -45.9 °F -23.8 °F 76% 30.34 in 10.0 mi NW 19.6 mph 26.5 mph N/A   Scattered Clouds
3:10 AM -16.6 °F -42.9 °F -23.8 °F 70% 30.33 in 10.0 mi NW 18.4 mph - N/A   Mostly Cloudy
3:30 AM -18.4 °F -46.5 °F -23.8 °F 76% 30.33 in 10.0 mi NW 20.7 mph 25.3 mph N/A   Partly Cloudy
3:50 AM -18.4 °F -46.5 °F -25.6 °F 70% 30.32 in 10.0 mi NW 20.7 mph 24.2 mph N/A   Clear
4:10 AM -18.4 °F -45.9 °F -23.8 °F 76% 30.32 in 10.0 mi NW 19.6 mph 26.5 mph N/A   Clear
4:30 AM -18.4 °F -42.9 °F -23.8 °F 76% 30.32 in 10.0 mi NW 15.0 mph 23.0 mph N/A   Clear
4:45 AM -18.4 °F -46.5 °F -25.6 °F 70% 30.33 in 10.0 mi NW 20.7 mph 24.2 mph N/A   Clear
5:10 AM -18.4 °F -46.5 °F -25.6 °F 70% 30.32 in 10.0 mi NW 20.7 mph 25.3 mph N/A   Clear
5:25 AM -18.4 °F -47.1 °F -25.6 °F 70% 30.32 in 10.0 mi NW 21.9 mph 25.3 mph N/A   Clear
5:50 AM -18.4 °F -44.5 °F -25.6 °F 70% 30.31 in 10.0 mi NW 17.3 mph - N/A   Clear
6:05 AM -18.4 °F -45.2 °F -23.8 °F 76% 30.32 in 10.0 mi NW 18.4 mph - N/A   Partly Cloudy
6:30 AM -18.4 °F -42.9 °F -23.8 °F 76% 30.31 in 10.0 mi NW 15.0 mph - N/A   Partly Cloudy
6:50 AM -18.4 °F -43.7 °F -23.8 °F 76% 30.31 in 10.0 mi NW 16.1 mph 23.0 mph N/A   Partly Cloudy
7:10 AM -18.4 °F -46.5 °F -25.6 °F 70% 30.31 in 10.0 mi NW 20.7 mph 26.5 mph N/A   Clear
7:25 AM -18.4 °F -45.2 °F -25.6 °F 70% 30.31 in 10.0 mi NW 18.4 mph - N/A   Clear
7:50 AM -18.4 °F -44.5 °F -25.6 °F 70% 30.31 in 10.0 mi NW 17.3 mph 23.0 mph N/A   Clear
8:05 AM -18.4 °F -43.7 °F -25.6 °F 70% 30.32 in 10.0 mi NW 16.1 mph 21.9 mph N/A   Clear
8:30 AM -18.4 °F -46.5 °F -25.6 °F 70% 30.32 in 10.0 mi NW 20.7 mph 25.3 mph N/A   Clear
8:45 AM -18.4 °F -47.1 °F -25.6 °F 70% 30.31 in 10.0 mi NW 21.9 mph 25.3 mph N/A   Clear
9:10 AM -16.6 °F -43.5 °F -23.8 °F 70% 30.32 in 10.0 mi NW 19.6 mph 26.5 mph N/A   Clear
9:25 AM -16.6 °F -43.5 °F -23.8 °F 70% 30.33 in 10.0 mi NW 19.6 mph 25.3 mph N/A   Clear
9:50 AM -16.6 °F -44.1 °F -22.0 °F 76% 30.33 in 10.0 mi NW 20.7 mph 25.3 mph N/A   Clear
10:05 AM -16.6 °F -44.8 °F -22.0 °F 76% 30.33 in 10.0 mi NW 21.9 mph 25.3 mph N/A   Clear
10:30 AM -14.8 °F -43.5 °F -22.0 °F 70% 30.32 in 10.0 mi NW 24.2 mph 31.1 mph N/A   Clear
10:45 AM -14.8 °F -44.0 °F -22.0 °F 70% 30.32 in 10.0 mi NW 25.3 mph 34.5 mph N/A   Clear
11:10 AM -13.0 °F -41.6 °F -22.0 °F 64% 30.32 in 10.0 mi NW 25.3 mph 33.4 mph N/A   Clear
11:25 AM -13.0 °F -41.1 °F -22.0 °F 64% 30.31 in 10.0 mi NW 24.2 mph 29.9 mph N/A   Clear
11:50 AM -13.0 °F -40.6 °F -22.0 °F 64% 30.30 in 10.0 mi NW 23.0 mph 29.9 mph N/A   Clear
12:05 PM -13.0 °F -38.2 °F -20.2 °F 70% 30.30 in 10.0 mi NW 18.4 mph - N/A   Clear
12:30 PM -13.0 °F -37.5 °F -20.2 °F 70% 30.29 in 10.0 mi NW 17.3 mph 26.5 mph N/A   Clear
12:45 PM -13.0 °F -38.2 °F -20.2 °F 70% 30.28 in 10.0 mi WNW 18.4 mph 25.3 mph N/A   Clear
1:10 PM -11.2 °F -37.0 °F -20.2 °F 64% 30.26 in 10.0 mi WNW 20.7 mph 25.3 mph N/A   Clear
1:25 PM -11.2 °F -38.2 °F -18.4 °F 70% 30.26 in 10.0 mi WNW 23.0 mph 27.6 mph N/A   Clear
1:50 PM -11.2 °F -37.6 °F -18.4 °F 70% 30.26 in 10.0 mi WNW 21.9 mph 28.8 mph N/A   Clear
2:10 PM -11.2 °F -37.6 °F -18.4 °F 70% 30.25 in 10.0 mi WNW 21.9 mph 26.5 mph N/A   Clear
2:25 PM -9.4 °F -35.2 °F -18.4 °F 65% 30.26 in 10.0 mi WNW 21.9 mph 29.9 mph N/A   Clear
2:45 PM -9.4 °F -35.2 °F -18.4 °F 65% 30.25 in 10.0 mi WNW 21.9 mph 28.8 mph N/A   Clear
3:10 PM -9.4 °F -36.3 °F -16.6 °F 71% 30.26 in 10.0 mi WNW 24.2 mph 27.6 mph N/A   Clear
3:30 PM -9.4 °F -35.2 °F -16.6 °F 71% 30.25 in 10.0 mi WNW 21.9 mph - N/A   Clear
3:45 PM -9.4 °F -34.1 °F -16.6 °F 71% 30.25 in 10.0 mi WNW 19.6 mph - N/A   Clear
4:10 PM -9.4 °F -32.8 °F -16.6 °F 71% 30.24 in 10.0 mi WNW 17.3 mph 24.2 mph N/A   Clear
4:25 PM -9.4 °F -32.8 °F -16.6 °F 71% 30.24 in 10.0 mi WNW 17.3 mph 21.9 mph N/A   Clear
4:50 PM -9.4 °F -31.4 °F -16.6 °F 71% 30.23 in 10.0 mi WNW 15.0 mph - N/A   Clear
5:05 PM -9.4 °F -30.6 °F -16.6 °F 71% 30.23 in 10.0 mi WNW 13.8 mph 21.9 mph N/A   Clear
5:25 PM -9.4 °F -27.9 °F -16.6 °F 71% 30.23 in 10.0 mi West 10.4 mph - N/A   Clear
5:50 PM -9.4 °F -27.9 °F -16.6 °F 71% 30.21 in 10.0 mi West 10.4 mph - N/A   Clear
6:05 PM -9.4 °F -29.8 °F -16.6 °F 71% 30.21 in 10.0 mi WNW 12.7 mph - N/A   Clear
6:30 PM -9.4 °F -28.9 °F -16.6 °F 71% 30.20 in 10.0 mi WNW 11.5 mph - N/A   Clear
6:45 PM -11.2 °F -32.1 °F -16.6 °F 77% 30.20 in 10.0 mi West 12.7 mph 17.3 mph N/A   Clear
7:10 PM -11.2 °F -30.1 °F -16.6 °F 77% 30.20 in 10.0 mi West 10.4 mph - N/A   Clear
7:25 PM -11.2 °F -30.1 °F -16.6 °F 77% 30.20 in 10.0 mi West 10.4 mph - N/A   Clear
7:45 PM -11.2 °F -29.0 °F -16.6 °F 77% 30.19 in 10.0 mi West 9.2 mph - N/A   Clear
8:10 PM -11.2 °F -30.1 °F -16.6 °F 77% 30.19 in 10.0 mi West 10.4 mph - N/A   Clear
8:25 PM -9.4 °F -26.8 °F -16.6 °F 71% 30.19 in 10.0 mi West 9.2 mph - N/A   Clear
8:50 PM -9.4 °F -25.6 °F -16.6 °F 71% 30.18 in 10.0 mi West 8.1 mph - N/A   Clear
9:05 PM -9.4 °F -25.6 °F -16.6 °F 71% 30.18 in 10.0 mi WNW 8.1 mph - N/A   Clear
9:30 PM -11.2 °F -26.4 °F -16.6 °F 77% 30.17 in 10.0 mi West 6.9 mph - N/A   Clear
9:45 PM -9.4 °F -22.7 °F -16.6 °F 71% 30.15 in 10.0 mi West 5.8 mph - N/A   Partly Cloudy
10:10 PM -9.4 °F -26.8 °F -14.8 °F 77% 30.15 in 10.0 mi West 9.2 mph - N/A   Mostly Cloudy
10:25 PM -9.4 °F -24.3 °F -14.8 °F 77% 30.15 in 10.0 mi West 6.9 mph - N/A   Overcast
10:50 PM -7.6 °F -22.1 °F -14.8 °F 71% 30.14 in 10.0 mi WSW 6.9 mph - N/A   Overcast
11:05 PM -7.6 °F -18.8 °F -14.8 °F 71% 30.13 in 10.0 mi West 4.6 mph - N/A   Overcast
11:30 PM -7.6 °F -18.8 °F -14.8 °F 71% 30.13 in 10.0 mi WNW 4.6 mph - N/A   Mostly Cloudy
11:45 PM -9.4 °F -20.9 °F -14.8 °F 77% 30.12 in 10.0 mi WSW 4.6 mph - N/A   Mostly Cloudy